[[{"header":{"parameterUnit":"m.s-1","parameterCategory":1,"la1":30.2991,"la2":30.254,"lo1":-89.0895,"lo2":-89.0444,"dy":0.0017,"dx":0.0017,"nx":28,"ny":28,"refTime":"2024-10-06T03:00:00:Z","depth":0,"parameterNumber":2,"parameterNumberName":"U-component_of_WINDS"},"data":[0,0,0,0,0,0,0,0,0,0,0,0,0,0,0,0,0,0,0,0,0,0,0,0,0,0,0,0,0,0,0,0,0,0,0,0,0,0,0,0,0,0,0,0,0,0,0,0,0,0,0,0,0,0,0,0,0,0,-3.6752,-3.6753,0,-3.6842,-3.6843,-3.6844,-3.67,-3.6695,-3.669,-3.6685,-3.6784,-3.6791,-3.6798,0,0,0,0,0,0,0,0,0,0,0,0,0,-3.6463,-3.6469,-3.6752,-3.6753,-3.6754,-3.6842,-3.6843,-3.6844,-3.67,-3.6694,-3.6688,-3.6683,-3.6781,-3.679,-3.6799,0,0,0,0,0,0,0,0,0,0,0,0,0,-3.6574,-3.6471,-3.6752,-3.6693,-3.6688,-3.6841,-3.6843,-3.6844,-3.6702,-3.6694,-3.6687,-3.668,-3.6779,-3.6789,-3.68,-3.7017,0,0,-3.6833,-3.6838,0,0,0,0,0,0,0,0,-3.6568,-3.6585,-3.67,-3.6697,-3.6692,-3.6752,-3.6777,-3.6902,-3.6704,-3.6697,-3.6685,-3.6676,-3.678,-3.679,-3.6823,-3.7021,-3.7026,-3.6834,-3.6841,-3.6846,-3.6849,0,0,0,0,0,0,0,-3.6561,-3.658,-3.6787,-3.6702,-3.6698,-3.6664,-3.6672,-3.68,-3.6779,-3.6697,-3.6687,-3.6699,-3.6776,-3.6813,-3.6825,-3.7027,-3.6834,-3.6844,-3.685,-3.6855,-3.7411,-3.7418,0,0,0,0,0,0,-3.6559,-3.6575,-3.6785,-3.679,-3.661,-3.6675,-3.6684,-3.674,-3.6777,-3.6776,-3.6705,-3.6692,-3.6798,-3.6812,-3.6828,-3.7086,-3.6845,-3.6856,-3.6862,-3.7403,-3.7412,-3.7421,0,0,0,0,0,0,-3.6553,-3.6579,-3.6781,-3.668,-3.6703,-3.6688,-3.6753,-3.6746,-3.6783,-3.6784,-3.678,-3.6747,-3.6793,-3.6812,-3.6971,-3.7088,-3.6861,-3.6871,-3.7393,-3.7406,-3.7417,-3.7605,0,0,0,0,0,0,-3.6546,-3.6578,-3.6659,-3.6683,-3.6709,-3.6922,-3.676,-3.6753,-3.6801,-3.6785,-3.6821,-3.682,-3.6789,-3.6956,-3.6982,-3.7099,-3.6879,-3.7382,-3.7398,-3.7413,-3.7588,-3.7622,-3.7651,0,0,0,0,0,-3.6536,-3.6709,-3.6663,-3.6689,-3.6809,-3.6928,-3.6944,-3.6901,-3.6811,-3.6894,-3.6894,-3.6819,-3.707,-3.6973,-3.7001,-3.7123,-3.7375,-3.7394,-3.7412,-3.7574,-3.7615,-3.765,0,0,0,0,0,0,-3.67,-3.6711,-3.6661,-3.6846,-3.6887,-3.6904,-3.7006,-3.6946,-3.7016,-3.6998,-3.6944,-3.6954,-3.7125,-3.7139,-3.7031,-3.7337,-3.7208,-3.7233,-3.7321,-3.7361,-3.7391,-3.7386,-3.6888,0,0,0,0,0,-3.6758,-3.6852,-3.6856,-3.7019,-3.7042,-3.7021,-3.7071,-3.7035,-3.7077,-3.7095,-3.7106,-3.7152,-3.7241,-3.7301,-3.7383,-3.7588,-3.7596,-3.7686,-3.7718,-3.7744,-3.7767,-3.788,-3.7922,-3.7482,-3.7482,-3.7482,0,0,-3.6878,-3.6895,-3.6958,-3.7053,-3.7081,-3.7182,-3.7037,-3.7149,-3.7225,-3.7112,-3.7263,-3.7274,-3.7321,-3.7505,-3.7587,-3.7523,-3.789,-3.7767,-3.7788,-3.7797,-3.7904,-3.7945,-3.7983,-3.7495,-3.7492,-3.749,0,0,-3.715,-3.7171,-3.731,-3.7341,-3.7384,-3.7369,-3.7403,-3.7429,-3.7432,-3.7581,-3.75,-3.759,-3.7743,-3.7781,-3.7821,-3.8108,-3.8044,-3.8137,-3.8302,-3.8413,-3.8448,-3.8478,-3.8585,-3.8623,-3.8159,-3.816,-3.816,0,-3.7295,-3.7442,-3.739,-3.7509,-3.7555,-3.7455,-3.7598,-3.7631,-3.77,-3.7735,-3.7661,-3.7853,-3.7878,-3.8071,-3.8141,-3.8175,-3.8215,-3.8133,-3.8446,-3.8477,-3.8504,-3.8605,-3.8645,-3.8171,-3.817,-3.8168,-3.8167,0,-3.762,-3.7723,-3.7831,-3.7899,-3.7956,-3.8087,-3.8057,-3.8122,-3.8081,-3.8075,-3.8231,-3.8256,-3.8343,-3.8385,-3.8347,-3.8575,-3.8534,-3.8454,-3.8324,-3.8559,-3.8653,-3.869,-3.8187,-3.8183,-3.818,-3.8177,0,0,-3.7999,-3.8037,-3.8078,-3.8108,-3.8149,-3.823,-3.8357,-3.8439,-3.8498,-3.8549,-3.8656,-3.8789,-3.8716,-3.8761,-3.8726,-3.8823,-3.9054,-3.8732,-3.8732,-3.8794,-3.9311,-3.9373,-3.9418,-3.901,-3.9017,-3.9023,-3.9308,0,-3.8272,-3.8489,-3.8447,-3.8661,-3.8758,-3.8665,-3.8776,-3.8815,-3.8813,-3.8896,-3.8894,-3.899,-3.8885,-3.8912,-3.9004,-3.9007,-3.9158,-3.8985,-3.9114,-3.9119,-3.9108,-3.9466,-3.9532,-3.98,-3.9344,-3.935,-3.9354,0,-3.862,-3.8683,-3.8906,-3.8934,-3.8973,-3.9073,-3.9147,-3.9227,-3.927,-3.9262,-3.9313,-3.926,-3.939,-3.9256,-3.9436,-3.932,-3.937,-3.9379,-3.9389,-3.9402,-3.9253,-3.9493,-3.9884,-3.9926,-3.9411,-3.9407,-3.9403,0,-3.8879,-3.9019,-3.9171,-3.92,-3.9235,-3.9309,-3.9327,-3.9362,-3.9416,-3.9481,-3.9516,-3.9596,-3.9641,-3.9706,-3.9677,-3.9582,-3.9865,-3.9727,-3.9865,-3.9866,-3.9931,-3.9928,-4.0339,-3.9958,-3.9957,-3.9956,-3.9955,0,-3.919,-3.9331,-3.9288,-3.9383,-3.9539,-3.949,-3.9646,-3.9654,-3.9687,-3.9783,-3.9707,-3.98,-3.9755,-3.9845,-3.9824,-3.9978,-3.9998,-3.9998,-3.9991,-4.0007,-4.0008,-4.0041,-4.0023,-3.9967,-3.9965,-3.9963,-3.9961,0,-3.9506,-3.9483,-3.9643,-3.9663,-3.9671,-3.9786,-3.9804,-3.9894,-3.9885,-4.0008,-4.0034,-4.0023,-4.0125,-4.0102,-4.0215,-4.02,-4.0396,-4.0364,-4.0381,-4.0375,-4.0515,-4.0504,-4.0965,-4.1025,-4.0602,-4.0606,-4.0609,0,-3.9708,-3.9814,-3.9845,-3.9903,-3.9927,-4.0022,-4.0075,-4.0032,-4.0091,-4.015,-4.0234,-4.0328,-4.0403,-4.0571,-4.0575,-4.0661,-4.0633,-4.0789,-4.0646,-4.0659,-4.064,-4.0636,-4.0648,-4.0819,-4.0824,-4.0827,-4.0831,0,-4.0069,-4.0053,-4.0132,-4.0209,-4.0275,-4.0334,-4.0385,-4.0438,-4.0399,-4.047,-4.0573,-4.0631,-4.0745,-4.0843,-4.0923,-4.0944,-4.0884,-4.0875,-4.0912,-4.0931,-4.0938,-4.094,-4.0463,-4.0866,-4.0862,-4.086,-4.0858,-4.0856,-4.0337,-4.0428,-4.0465,-4.0557,-4.059,-4.0641,-4.0727,-4.0729,-4.0813,-4.0902,-4.0871,-4.099,-4.1033,-4.1134,-4.1166,-4.126,-4.1202,-4.1255,-4.1269,-4.1283,-4.1302,-4.092,-4.1274,-4.1273,-4.1272,-4.1271,-4.1271,0,-4.0697,-4.0716,-4.0801,-4.0876,-4.0949,-4.0881,-4.0936,-4.1003,-4.1107,-4.1151,-4.1225,-4.1346,-4.144,-4.145,-4.154,-4.1614,-4.1589,-4.1639,-4.1635,-4.1642,-4.1347,-4.1308,-4.1659,-4.1659,-4.1659,-4.1658,-4.1658,-4.1658,-4.0894,-4.1046,-4.1034,-4.1203,-4.1221,-4.1335,-4.1373,-4.142,-4.1455,-4.1592,-4.1669,-4.1675,-4.1707,-4.1798,-4.1883,-4.1884,-4.1922,-4.1985,-4.1976,-4.1701,-4.1662,-4.1626,-4.1588,-4.1993,-4.1993,-4.2263,-4.2265,-4.2267]},{"header":{"parameterUnit":"m.s-1","parameterCategory":1,"la1":30.2991,"la2":30.254,"lo1":-89.0895,"lo2":-89.0444,"dy":0.0017,"dx":0.0017,"nx":28,"ny":28,"refTime":"2024-10-06T03:00:00:Z","depth":0,"parameterNumber":3,"parameterNumberName":"V-component_of_WINDS"},"data":[0,0,0,0,0,0,0,0,0,0,0,0,0,0,0,0,0,0,0,0,0,0,0,0,0,0,0,0,0,0,0,0,0,0,0,0,0,0,0,0,0,0,0,0,0,0,0,0,0,0,0,0,0,0,0,0,0,0,-2.688,-2.688,0,-2.6846,-2.6845,-2.6845,-2.6798,-2.6798,-2.6797,-2.6796,-2.6761,-2.6761,-2.6761,0,0,0,0,0,0,0,0,0,0,0,0,0,-2.6904,-2.6904,-2.688,-2.688,-2.6879,-2.6846,-2.6845,-2.6845,-2.6799,-2.6798,-2.6797,-2.6796,-2.6761,-2.6761,-2.676,0,0,0,0,0,0,0,0,0,0,0,0,0,-2.6884,-2.6904,-2.688,-2.6852,-2.6849,-2.6846,-2.6845,-2.6845,-2.6799,-2.6798,-2.6796,-2.6795,-2.6761,-2.6761,-2.676,-2.6782,0,0,-2.6759,-2.6759,0,0,0,0,0,0,0,0,-2.6886,-2.6884,-2.6857,-2.6854,-2.6851,-2.6825,-2.6841,-2.6824,-2.6799,-2.6818,-2.6796,-2.6795,-2.6783,-2.6781,-2.6777,-2.678,-2.6779,-2.6759,-2.6759,-2.6759,-2.6759,0,0,0,0,0,0,0,-2.6887,-2.6885,-2.6867,-2.6856,-2.6853,-2.6841,-2.6837,-2.6837,-2.6808,-2.6816,-2.6813,-2.6809,-2.6781,-2.6778,-2.6776,-2.6778,-2.6759,-2.6759,-2.6759,-2.6759,-2.6795,-2.6796,0,0,0,0,0,0,-2.6893,-2.6886,-2.6868,-2.6866,-2.6866,-2.6841,-2.6837,-2.6835,-2.6807,-2.6802,-2.681,-2.6807,-2.6779,-2.6776,-2.6775,-2.6796,-2.6759,-2.6759,-2.6759,-2.6793,-2.6795,-2.6796,0,0,0,0,0,0,-2.6893,-2.6892,-2.6869,-2.6875,-2.6871,-2.6842,-2.684,-2.6835,-2.6831,-2.6803,-2.6797,-2.6812,-2.6778,-2.6775,-2.678,-2.6794,-2.6759,-2.6758,-2.6792,-2.6794,-2.6795,-2.6841,0,0,0,0,0,0,-2.6894,-2.6892,-2.69,-2.6875,-2.6871,-2.6876,-2.6841,-2.6835,-2.683,-2.6826,-2.6803,-2.6798,-2.6777,-2.6781,-2.678,-2.6793,-2.6758,-2.6791,-2.6793,-2.6795,-2.6838,-2.6844,-2.6849,0,0,0,0,0,-2.6895,-2.6915,-2.6901,-2.6899,-2.6881,-2.6877,-2.6874,-2.6849,-2.6832,-2.6839,-2.6821,-2.6799,-2.6793,-2.6781,-2.678,-2.6794,-2.679,-2.6792,-2.6795,-2.6835,-2.6842,-2.6849,0,0,0,0,0,0,-2.6943,-2.6911,-2.6895,-2.6908,-2.6895,-2.6869,-2.6878,-2.6858,-2.685,-2.6846,-2.6815,-2.681,-2.6818,-2.6807,-2.6794,-2.6812,-2.6788,-2.679,-2.6819,-2.6826,-2.6831,-2.6833,-2.6758,0,0,0,0,0,-2.6955,-2.6954,-2.6926,-2.694,-2.6934,-2.6907,-2.6904,-2.6886,-2.6871,-2.6866,-2.6848,-2.6835,-2.683,-2.6827,-2.6821,-2.6836,-2.6829,-2.6844,-2.685,-2.6855,-2.6857,-2.6861,-2.6867,-2.6805,-2.6804,-2.6804,0,0,-2.6979,-2.6962,-2.6963,-2.6949,-2.6937,-2.6936,-2.6903,-2.6904,-2.6903,-2.6866,-2.6869,-2.6856,-2.6839,-2.6848,-2.6851,-2.6838,-2.6873,-2.6858,-2.6862,-2.6861,-2.6865,-2.6871,-2.6876,-2.6806,-2.6806,-2.6806,0,0,-2.7023,-2.7011,-2.7019,-2.7008,-2.699,-2.6971,-2.6973,-2.695,-2.6939,-2.6942,-2.6913,-2.6911,-2.6904,-2.6892,-2.6886,-2.6923,-2.6902,-2.6922,-2.6951,-2.6956,-2.6961,-2.6965,-2.6977,-2.6982,-2.6925,-2.6925,-2.6925,0,-2.7056,-2.7054,-2.7026,-2.7029,-2.7022,-2.6988,-2.6996,-2.6987,-2.6968,-2.6964,-2.695,-2.6938,-2.6925,-2.693,-2.6939,-2.6935,-2.6935,-2.6925,-2.6962,-2.6966,-2.697,-2.6981,-2.6985,-2.6927,-2.6927,-2.6927,-2.6927,0,-2.7094,-2.7093,-2.7102,-2.7084,-2.7079,-2.7084,-2.7057,-2.7055,-2.7036,-2.7019,-2.7021,-2.7003,-2.6992,-2.6992,-2.6975,-2.6994,-2.6987,-2.6968,-2.6943,-2.6979,-2.6988,-2.6992,-2.6931,-2.693,-2.6929,-2.6929,0,0,-2.7167,-2.7132,-2.7136,-2.7127,-2.7104,-2.7102,-2.7105,-2.7094,-2.7092,-2.708,-2.7081,-2.7075,-2.7056,-2.7049,-2.703,-2.7034,-2.7063,-2.7014,-2.7014,-2.7023,-2.7081,-2.7094,-2.7099,-2.7049,-2.7049,-2.705,-2.7082,0,-2.7205,-2.7209,-2.7183,-2.7193,-2.7191,-2.7158,-2.716,-2.7146,-2.713,-2.7125,-2.7107,-2.7102,-2.708,-2.7075,-2.7078,-2.7059,-2.7074,-2.7056,-2.7048,-2.7048,-2.7052,-2.7105,-2.7119,-2.715,-2.7085,-2.7086,-2.7087,0,-2.7251,-2.724,-2.725,-2.7224,-2.7223,-2.7225,-2.7212,-2.7208,-2.7191,-2.7178,-2.7169,-2.7147,-2.7147,-2.7124,-2.7123,-2.7111,-2.7106,-2.7096,-2.7097,-2.7094,-2.7069,-2.7102,-2.7159,-2.7164,-2.7092,-2.7092,-2.7092,0,-2.7301,-2.7289,-2.7293,-2.7286,-2.7257,-2.726,-2.7248,-2.7229,-2.7223,-2.7212,-2.7207,-2.7196,-2.719,-2.7181,-2.7155,-2.7141,-2.7156,-2.7132,-2.7145,-2.7146,-2.7149,-2.7149,-2.7205,-2.7148,-2.7148,-2.7148,-2.7148,0,-2.7346,-2.7353,-2.7315,-2.7317,-2.7323,-2.7294,-2.73,-2.7285,-2.7269,-2.7266,-2.7238,-2.7236,-2.7203,-2.7198,-2.7178,-2.7179,-2.7177,-2.7166,-2.716,-2.7168,-2.7169,-2.7163,-2.716,-2.7149,-2.7149,-2.7149,-2.7149,0,-2.7403,-2.7378,-2.7379,-2.7352,-2.7345,-2.735,-2.7326,-2.7326,-2.7308,-2.7306,-2.7303,-2.7274,-2.7266,-2.724,-2.7226,-2.7212,-2.7218,-2.7209,-2.7224,-2.722,-2.7235,-2.7233,-2.7288,-2.7293,-2.7235,-2.7235,-2.7236,0,-2.7433,-2.7437,-2.7409,-2.7405,-2.7395,-2.739,-2.7383,-2.7354,-2.7348,-2.7328,-2.733,-2.732,-2.731,-2.7298,-2.7275,-2.7263,-2.7252,-2.7272,-2.725,-2.7257,-2.725,-2.725,-2.7249,-2.7277,-2.7277,-2.7278,-2.7279,0,-2.7487,-2.7474,-2.7466,-2.7454,-2.7447,-2.7436,-2.7423,-2.7421,-2.7388,-2.7383,-2.7374,-2.7367,-2.7351,-2.734,-2.7324,-2.7311,-2.7289,-2.7286,-2.7288,-2.7295,-2.7303,-2.7297,-2.7236,-2.7284,-2.7284,-2.7283,-2.7283,-2.7283,-2.753,-2.7532,-2.7512,-2.7504,-2.7491,-2.7479,-2.7477,-2.7458,-2.745,-2.7435,-2.7418,-2.7411,-2.7391,-2.7368,-2.7356,-2.7349,-2.7337,-2.7341,-2.7342,-2.7343,-2.7345,-2.7305,-2.7346,-2.7346,-2.7346,-2.7346,-2.7346,0,-2.7582,-2.7568,-2.756,-2.7542,-2.7535,-2.7515,-2.7499,-2.7494,-2.7488,-2.7472,-2.7462,-2.7451,-2.744,-2.7416,-2.7403,-2.7401,-2.7391,-2.7399,-2.7398,-2.7395,-2.7358,-2.7356,-2.7407,-2.7407,-2.7407,-2.7407,-2.7407,-2.7407,-2.7608,-2.7609,-2.7594,-2.7587,-2.7572,-2.7565,-2.7557,-2.7545,-2.7532,-2.7521,-2.7511,-2.7496,-2.7476,-2.746,-2.7449,-2.7442,-2.7437,-2.7449,-2.7438,-2.7404,-2.7398,-2.7392,-2.7391,-2.7448,-2.7448,-2.7476,-2.7476,-2.7476]}]]